7 * 24
多渠道服务支持
STARLINK-36860(NORAD编号67935)是SpaceX星链(Starlink)低轨互联网星座中的一颗通信卫星,属于星链大规模组网部署计划的组成部分。星链项目由SpaceX在2015年启动,目标部署超4万颗低轨卫星,提供全球覆盖的卫星互联网服务。 该卫星运行于近地轨道,是SpaceX计划在2026年降低轨道至480公里的4400颗星链卫星之一,降轨旨在提升太空安全,减少碰撞风险与空间碎片威胁。它采用星链标准化设计,配备氪离子推进系统和自主碰撞规避系统,依托Ku/Ka频段提供通信服务,支撑全球偏远地区、移动场景的互联网接入。
美国
(US)
| 数据来源 | 国际轨道数据 |
| 星历时间: | 2026-05-25T13:33:30+0800 3小时前 查看轨道信息 |
| 半长轴: | 6861.169km |
| 偏心率: | 0.0001813 |
| 轨道倾角: | 43.001° |
| 近地点辐角 | 275.517° |
| 升交点赤经 | 118.740° |
| 平近点角 | 84.547° |
| 近地点: | 481.788km |
| 远地点: | 484.276km |
| 周期: | 94.266分钟 |
| 每日圈数: | 15.27586 |